Date String (YYYY-MM-DD hh:mm:ss) UTC,Instrument flags,absolute air pressure of the measurement (hPa),sample flow rate (lpm),inlet stack bypass flow (lpm),air temperature of the measurement (°C),ambient temperature measured by the external sensor (°C),aerosol sample conditioner tube jacket temperature (°C),OPC LED temperature (°C),internal box temperature (°C),relative humidity of the measurement (%),span deviation,mass concentration of particles derived from Lorenz-Mie calculation of OPC scattering (μg/m³),mass concentration of particles derived from Lorenz-Mie calculation of OPC scattering (μg/m³),mass concentration of particles derived from Lorenz-Mie calculation of OPC scattering (μg/m³)
DateTimeUTC,F1_M11,P_M11,Q1_M11,Q2_M11,T1_M11,T2_M11,T3_M11,T4_M11,T5_M11,U1_M11,ZSPAN_M11,X2_M11,X0_M11,X1_M11
2024-05-06 07:00:00,SystemResetWarning,0811.5,5.00,000.00,025.8,025.0,000.0,034.2,027.6,016.0,0000.0,0004.07,0013.11,0002.65
2024-05-06 07:01:00,SystemResetWarning,0811.4,5.00,000.00,025.8,025.0,000.0,034.3,027.6,016.0,0000.0,0004.06,0012.39,0002.65
2024-05-06 07:02:00,SystemResetWarning,0811.4,5.00,000.00,025.8,025.0,000.0,034.3,027.6,015.9,0000.0,0004.10,0012.71,0002.66
2024-05-06 07:03:00,SystemResetWarning,0811.4,5.01,000.00,025.8,025.0,000.0,034.3,027.6,016.0,0000.0,0004.06,0012.65,0002.66
2024-05-06 07:04:00,SystemResetWarning,0811.5,5.01,000.00,025.8,025.0,000.0,034.3,027.6,016.0,0000.0,0004.02,0012.71,0002.69
2024-05-06 07:05:00,SystemResetWarning,0811.5,5.00,000.00,025.8,025.0,000.0,034.3,027.6,016.0,0000.0,0004.06,0012.85,0002.68
2024-05-06 07:06:00,SystemResetWarning,0811.5,4.99,000.00,025.8,025.0,000.0,034.3,027.6,016.0,0000.0,0004.11,0012.80,0002.67
2024-05-06 07:07:00,SystemResetWarning,0811.5,5.00,000.00,025.8,025.0,000.0,034.3,027.6,016.0,0000.0,0004.12,0012.37,0002.64
2024-05-06 07:08:00,SystemResetWarning,0811.5,4.99,000.00,025.8,025.0,000.0,034.3,027.6,016.0,0000.0,0004.15,0011.76,0002.61
2024-05-06 07:09:00,SystemResetWarning,0811.4,5.00,000.00,025.8,025.0,000.0,034.3,027.6,016.0,0000.0,0004.20,0011.79,0002.60
2024-05-06 07:10:00,SystemResetWarning,0811.4,5.02,000.00,025.8,025.0,000.0,034.3,027.6,016.1,0000.0,0004.22,0011.23,0002.59
2024-05-06 07:11:00,SystemResetWarning,0811.3,5.00,000.00,025.8,025.0,000.0,034.3,027.6,015.9,0000.0,0004.19,0011.00,0002.58
2024-05-06 07:12:00,SystemResetWarning,0811.3,4.98,000.00,025.8,025.0,000.0,034.3,027.6,015.9,0000.0,0004.16,0010.75,0002.57
2024-05-06 07:13:00,SystemResetWarning,0811.2,5.02,000.00,025.8,025.0,000.0,034.3,027.6,015.9,0000.0,0004.10,0010.19,0002.56
2024-05-06 07:14:00,SystemResetWarning,0811.2,5.00,000.00,025.8,025.0,000.0,034.3,027.6,015.9,0000.0,0004.08,0010.63,0002.53
2024-05-06 07:15:00,SystemResetWarning,0811.2,5.00,000.00,025.8,025.0,000.0,034.3,027.6,015.9,0000.0,0004.07,0010.97,0002.50
2024-05-06 07:16:00,SystemResetWarning,0811.1,5.00,000.00,025.8,025.0,000.0,034.3,027.6,015.8,0000.0,0003.98,0011.01,0002.48
2024-05-06 07:17:00,SystemResetWarning,0811.1,5.00,000.00,025.8,025.0,000.0,034.3,027.6,015.7,0000.0,0003.94,0011.03,0002.46
2024-05-06 07:18:00,SystemResetWarning,0811.1,5.00,000.00,025.8,025.0,000.0,034.3,027.6,015.6,0000.0,0003.88,0010.91,0002.45
2024-05-06 07:19:00,SystemResetWarning,0811.1,5.00,000.00,025.8,025.0,000.0,034.3,027.6,015.5,0000.0,0003.84,0010.82,0002.43
2024-05-06 07:20:00,SystemResetWarning,0811.1,5.00,000.00,025.8,025.0,000.0,034.3,027.6,015.5,0000.0,0003.77,0010.48,0002.42
2024-05-06 07:21:00,SystemResetWarning,0811.1,5.01,000.00,025.8,025.0,000.0,034.3,027.6,015.5,0000.0,0003.73,0010.34,0002.39
2024-05-06 07:22:00,SystemResetWarning,0811.0,5.00,000.00,025.8,025.0,000.0,034.3,027.6,015.6,0000.0,0003.67,0010.19,0002.36
2024-05-06 07:23:00,SystemResetWarning,0811.0,4.99,000.00,025.8,025.0,000.0,034.3,027.6,015.5,0000.0,0003.62,0010.17,0002.33
2024-05-06 07:24:00,SystemResetWarning,0811.0,4.99,000.00,025.8,025.0,000.0,034.3,027.6,015.6,0000.0,0003.63,0010.47,0002.30
2024-05-06 07:25:00,SystemResetWarning,0811.0,5.01,000.00,025.8,025.0,000.0,034.3,027.6,015.4,0000.0,0003.59,0010.07,0002.29
2024-05-06 07:26:00,SystemResetWarning,0810.9,5.01,000.00,025.8,025.0,000.0,034.3,027.6,015.5,0000.0,0003.56,0008.65,0002.28
2024-05-06 07:27:00,SystemResetWarning,0810.9,5.00,000.00,025.8,025.0,000.0,034.3,027.6,015.4,0000.0,0003.55,0008.24,0002.27
2024-05-06 07:28:00,SystemResetWarning,0810.8,5.00,000.00,025.8,025.0,000.0,034.3,027.6,015.4,0000.0,0003.53,0007.85,0002.24
2024-05-06 07:29:00,SystemResetWarning,0810.8,5.00,000.00,025.8,025.0,000.0,034.3,027.6,015.4,0000.0,0003.51,0007.86,0002.23
2024-05-06 07:30:00,SystemResetWarning,0810.8,4.99,000.00,025.8,025.0,000.0,034.3,027.6,015.3,0000.0,0003.50,0008.18,0002.20
2024-05-06 07:31:00,SystemResetWarning,0810.8,4.99,000.00,025.8,025.0,000.0,034.3,027.6,015.1,0000.0,0003.48,0008.08,0002.19
2024-05-06 07:32:00,SystemResetWarning,0810.8,5.00,000.00,025.8,025.0,000.0,034.3,027.7,015.1,0000.0,0003.43,0007.95,0002.16
2024-05-06 07:33:00,SystemResetWarning,0810.8,5.00,000.00,025.8,025.0,000.0,034.3,027.6,015.1,0000.0,0003.44,0008.19,0002.16
2024-05-06 07:34:00,SystemResetWarning,0810.7,5.00,000.00,025.8,025.0,000.0,034.3,027.6,015.2,0000.0,0003.46,0008.44,0002.16
2024-05-06 07:35:00,SystemResetWarning,0810.6,5.02,000.00,025.8,025.0,000.0,034.3,027.6,015.3,0000.0,0003.43,0008.18,0002.15
2024-05-06 07:36:00,SystemResetWarning,0810.6,5.01,000.00,025.8,025.0,000.0,034.3,027.6,015.2,0000.0,0003.43,0008.14,0002.13
2024-05-06 07:37:00,SystemResetWarning,0810.6,5.00,000.00,025.8,025.0,000.0,034.3,027.6,015.1,0000.0,0003.43,0008.44,0002.11
2024-05-06 07:38:00,SystemResetWarning,0810.6,5.00,000.00,025.8,025.0,000.0,034.3,027.6,015.3,0000.0,0003.40,0008.63,0002.09
2024-05-06 07:39:00,SystemResetWarning,0810.7,4.99,000.00,025.8,025.0,000.0,034.3,027.6,015.4,0000.0,0003.40,0008.90,0002.10
2024-05-06 07:40:00,SystemResetWarning,0810.7,5.00,000.00,025.8,025.0,000.0,034.3,027.6,015.5,0000.0,0003.41,0008.86,0002.07
2024-05-06 07:41:00,SystemResetWarning,0810.6,4.99,000.00,025.8,025.0,000.0,034.3,027.6,015.5,0000.0,0003.39,0008.50,0002.05
2024-05-06 07:42:00,SystemResetWarning,0810.6,5.00,000.00,025.8,025.0,000.0,034.3,027.6,015.5,0000.0,0003.39,0008.43,0002.04
2024-05-06 07:43:00,SystemResetWarning,0810.6,5.00,000.00,025.8,025.0,000.0,034.3,027.5,015.5,0000.0,0003.43,0008.52,0002.03
2024-05-06 07:44:00,SystemResetWarning,0810.6,5.00,000.00,025.8,025.0,000.0,034.3,027.6,015.3,0000.0,0003.44,0008.41,0002.02
2024-05-06 07:45:00,SystemResetWarning,0810.6,5.00,000.00,025.8,025.0,000.0,034.3,027.6,015.1,0000.0,0003.42,0008.08,0002.00
2024-05-06 07:46:00,SystemResetWarning,0810.6,5.00,000.00,025.8,025.0,000.0,034.3,027.6,015.4,0000.0,0003.40,0007.99,0001.98
2024-05-06 07:47:00,SystemResetWarning,0810.5,5.00,000.00,025.8,025.0,000.0,034.3,027.6,015.3,0000.0,0003.39,0008.11,0001.96
2024-05-06 07:48:00,SystemResetWarning,0810.5,4.99,000.00,025.8,025.0,000.0,034.3,027.6,015.2,0000.0,0003.39,0007.82,0001.95
2024-05-06 07:49:00,SystemResetWarning,0810.5,5.02,000.00,025.8,025.0,000.0,034.3,027.6,015.2,0000.0,0003.38,0007.67,0001.94
2024-05-06 07:50:00,SystemResetWarning,0810.5,5.00,000.00,025.8,025.0,000.0,034.3,027.6,015.4,0000.0,0003.36,0007.46,0001.90
2024-05-06 07:51:00,SystemResetWarning,0810.4,5.00,000.00,025.8,025.0,000.0,034.3,027.6,015.2,0000.0,0003.33,0007.48,0001.87
2024-05-06 07:52:00,SystemResetWarning,0810.5,5.00,000.00,025.8,025.0,000.0,034.3,027.6,015.1,0000.0,0003.35,0007.54,0001.86
2024-05-06 07:53:00,SystemResetWarning,0810.5,5.00,000.00,025.8,025.0,000.0,034.3,027.6,015.1,0000.0,0003.40,0007.67,0001.86
2024-05-06 07:54:00,SystemResetWarning,0810.5,5.00,000.00,025.8,025.0,000.0,034.3,027.6,015.1,0000.0,0003.41,0007.75,0001.87
2024-05-06 07:55:00,SystemResetWarning,0810.4,5.02,000.00,025.8,025.0,000.0,034.3,027.6,015.2,0000.0,0003.41,0007.77,0001.86
2024-05-06 07:56:00,SystemResetWarning,0810.4,5.00,000.00,025.8,025.0,000.0,034.3,027.6,015.1,0000.0,0003.39,0007.78,0001.84
2024-05-06 07:57:00,SystemResetWarning,0810.4,4.99,000.00,025.8,025.1,000.0,034.3,027.6,015.0,0000.0,0003.36,0007.83,0001.83
2024-05-06 07:58:00,SystemResetWarning,0810.4,5.00,000.00,025.8,025.1,000.0,034.3,027.6,015.2,0000.0,0003.38,0007.86,0001.82
2024-05-06 07:59:00,SystemResetWarning,0810.4,5.00,000.00,025.8,025.1,000.0,034.3,027.6,015.2,0000.0,0003.40,0008.38,0001.81
